Location: East Irvine
(33.6759°N, 117.7598°W)
Time: 01:00:17
(UTC+00:00)

RESURS DK-1 - Pass Details

Date: 15 November 2025
Orbit: 524 x 535 km, 69.9° (Epoch: 06 December)

Event Time Altitude Azimuth Distance (km) Brightness Sun altitude
Rises 01:36:07 0° 359° (N) 2,690 5.7 -10.2°
Reaches altitude 10° 01:39:15 10° 25° (NNE) 1,794 4.6 -10.9°
Enters shadow 01:40:58 14° 51° (NE) 1,561 4.1 -11.2°
